Regional Weather Roundup
Issued by NWS

Home | Current Version | Previous Version | Text Only | Print | Product List | Glossary On
Versions: 1 2 3 4 5 6 7 8 9 10 11 12 13 14 15 16 17 18 19 20 21 22 23 24 25 26 27 28 29 30 31 32 33 34 35 36 37 38 39 40 41 42 43 44 45 46 47 48 49 50
000
ASUS46 KSEW 290810
RWRWA

WASHINGTON REGIONAL WEATHER ROUNDUP
NATIONAL WEATHER SERVICE SEATTLE WA
100 AM PDT FRI JUL 29 2016

NOTE:"FAIR" INDICATES FEW OR NO CLOUDS BELOW 12,000 FEET WITH NO
SIGNIFICANT WEATHER AND/OR OBSTRUCTIONS TO VISIBILITY.

WAZ505-507>509-290900-
SEATTLE, TACOMA, EVERETT, AND VICINITY

CITY           SKY/WX    TMP DP  RH WIND       PRES   REMARKS
EVERETT        CLEAR     66  55  67 NE7       30.04S
BOEING FIELD   CLEAR     71  58  63 CALM      30.01S
RENTON         CLEAR     71  63  75 N3        30.01S
SEATAC AIRPORT CLEAR     73  60  63 NE7       30.03S
JBLM-MCCHORD   CLEAR     64  59  86 CALM      30.02S
PUYALLUP         N/A    N/A N/A N/A CALM      30.03S
BREMERTON      CLEAR     66  55  68 NE5       30.06R
JBLM-FT LEWIS  CLEAR     69  59  69 CALM      30.01S
TACOMA NARROWS CLEAR     67  57  70 NW3       30.03R
$$

WAZ001-503-506-510-514-515-290900-
NORTH INTERIOR

CITY           SKY/WX    TMP DP  RH WIND       PRES   REMARKS
BELLINGHAM     CLEAR     64  60  87 CALM      30.03R
FRIDAY HARBOR  CLEAR     54  52  93 CALM      30.03S
EASTSOUND      CLEAR     63  57  82 S3        30.01S
PORT ANGELES   CLEAR     58  54  86 W5        30.04S
EDIZ HOOK      FAIR      57  55  90 W12       30.03S
PORT TOWNSEND  FAIR      55  55 100 CALM      30.03S
NAS WHIDBEY    CLEAR     57  52  83 SW6       30.07S
ARLINGTON      CLEAR     59  52  77 CALM      30.04S
BURLINGTON     CLEAR     61  57  88 CALM      30.03S
$$

WAZ020-022-039-040-504-511-512-290900-
SOUTHWEST INTERIOR

CITY           SKY/WX    TMP DP  RH WIND       PRES   REMARKS
SHELTON        CLEAR     65  58  78 W5        30.00F
OLYMPIA        CLEAR     68  60  75 N5        30.01S
CHEHALIS       MOCLDY    64  61  88 CALM      30.01F
KELSO          CLEAR     65  59  81 N5        30.01S
VANCOUVER      CLEAR     73  58  59 N3        29.96R
SCAPPOOSE, OR  CLEAR     73  55  53 NW5       29.95S
PORTLAND, OR   CLEAR     73  59  61 NW5       29.96S
$$

WAZ021-516-517-290900-
WASHINGTON COAST

CITY           SKY/WX    TMP DP  RH WIND       PRES   REMARKS
FORKS          CLEAR     56  54  93 CALM      30.04F
HOQUIAM        CLEAR     56  56 100 CALM      30.05S
ASTORIA, OR    CLOUDY    61  57  87 W7        30.05S
$$

WAZ019-023-024-040-518-519-290900-
CASCADE MOUNTAINS AND COLUMBIA GORGE

CITY           SKY/WX    TMP DP  RH WIND       PRES   REMARKS
STAMPEDE PASS  CLEAR     60  51  72 SW5       30.16F
TROUTDALE, OR  CLEAR     70  62  76 CALM      29.95S
THE DALLES, OR CLEAR     81  58  45 NW14      29.88S
$$

WAZ026-027-041>044-520-521-290900-
EAST SLOPES

CITY           SKY/WX    TMP DP  RH WIND       PRES   REMARKS
OMAK           CLEAR     78  52  40 NW8       29.95R
WENATCHEE      CLEAR     79  53  40 NW12      29.95R
ELLENSBURG     CLEAR     74  52  46 NW15      29.99S
YAKIMA         CLEAR     80  47  31 NW7       29.95R
$$

WAZ028-034-035-290900-
COLUMBIA BASIN

CITY           SKY/WX    TMP DP  RH WIND       PRES   REMARKS
EPHRATA        CLEAR     82  48  30 NW9       29.91S
MOSES LAKE     CLEAR     74  53  48 CALM      29.92S
PASCO          CLEAR     74  61  63 VRB3      29.88R
HERMISTON, OR  CLEAR     74  50  42 CALM      29.88R
$$

WAZ036>038-290900-
NORTHEAST WASHINGTON

CITY           SKY/WX    TMP DP  RH WIND       PRES   REMARKS
SPOKANE GEIGER CLEAR     71  50  47 CALM      29.99S
SPOKANE FELTS  CLEAR     68  52  56 CALM      29.98S
FAIRCHILD AFB  CLEAR     74  46  37 E3        30.00S
COEURDALENE,ID CLEAR     66  55  68 NE3       29.98S
DEER PARK      CLEAR     63  54  72 W5        29.99S
$$

WAZ029>033-290900-
SOUTHEAST WASHINGTON

CITY           SKY/WX    TMP DP  RH WIND       PRES   REMARKS
PULLMAN        CLEAR     62  50  64 CALM      30.02S
LEWISTON, ID   CLEAR     76  45  33 S6        29.93S
WALLA WALLA    CLEAR     79  50  36 E9        29.91S
PENDLETON, OR  CLEAR     73  46  38 SE9       29.93F
$$



USA.gov is the U.S. government's official web portal to all federal, state and local government web resources and services.